Glasgow, United Kingdom

9:49 PM GMT on January 18, 2018 (GMT +0000)
Glasgow

Weather History for EGPF - April, 2014

Change the Weather History Date:

Thursday, April 24, 2014

  Actual Average Record
Temperature  
Mean Temperature 52 °F -  
Max Temperature 60 °F 56 °F 62 °F (2002)
Min Temperature 44 °F 41 °F 30 °F (2006)
Degree Days  
Heating Degree Days 13    
Growing Degree Days 2 (Base 50)    
Moisture  
Dew Point 44 °F    
Average Humidity 74    
Maximum Humidity 93    
Minimum Humidity 55    
Precipitation  
Precipitation 0.00 in - - ()
Sea Level Pressure  
Sea Level Pressure 30.07 in    
Wind  
Wind Speed 5 mph ()    
Max Wind Speed 10 mph    
Max Gust Speed -    
Visibility 6.2 miles    
Events      
Averages and records for this station are not official NWS values.
T = Trace of Precipitation, MM = Missing Value Source: Averaged Metar Reports

Daily Weather History Graph

Daily Weather History Graph

Search for Another Location

Airport or City:

Trip Planner

Search our weather history database for the weather conditions in past years. The results will help you decide how hot, cold, wet, or windy it might be!

Date:

Astronomy

Apr. 24, 2014 Rise Set
Actual Time 5:50 AM BST 8:42 PM BST
Civil Twilight 5:08 AM BST 9:24 PM BST
Nautical Twilight 4:13 AM BST 10:20 PM BST
Astronomical Twilight 2:59 AM BST 11:36 PM BST
Moon 3:50 AM BST (4/24) 2:48 PM BST (4/24)
Length of Visible Light 16h 15m
Length of Day
14h 51m
Waning Crescent, 27% of the Moon is Illuminated
Apr 24
Waning Crescent
Apr 29
New
May 7
First Quarter
May 14
Full
May 21
Last Quarter

Hourly Weather History & Observations

Time (BST) Temp. Windchill Dew Point Humidity Pressure Visibility Wind Dir Wind Speed Gust Speed Precip Events Conditions
12:20 AM 50.0 °F - 46.4 °F 87% 30.01 in - South 5.8 mph - N/A   Clear
12:50 AM 50.0 °F - 46.4 °F 87% 30.01 in - South 4.6 mph - N/A   Clear
1:20 AM 50.0 °F - 46.4 °F 87% 30.01 in - SE 2.3 mph - N/A   Clear
1:50 AM 50.0 °F - 44.6 °F 82% 30.04 in - SSE 6.9 mph - N/A   Clear
2:20 AM 50.0 °F - 44.6 °F 82% 30.04 in - SSE 4.6 mph - N/A   Clear
2:50 AM 48.2 °F - 44.6 °F 87% 30.04 in - SE 5.8 mph - N/A   Clear
3:20 AM 48.2 °F - 44.6 °F 87% 30.04 in - NE 3.5 mph - N/A   Clear
3:50 AM 46.4 °F - 42.8 °F 87% 30.04 in 6.2 mi NE 2.3 mph - N/A   Partly Cloudy
4:20 AM 46.4 °F 44.3 °F 42.8 °F 87% 30.04 in 6.2 mi ENE 4.6 mph - N/A   Mostly Cloudy
4:50 AM 46.4 °F 44.3 °F 44.6 °F 93% 30.04 in 6.2 mi East 4.6 mph - N/A   Mostly Cloudy
5:20 AM 46.4 °F 45.2 °F 42.8 °F 87% 30.04 in 6.2 mi ENE 3.5 mph - N/A   Mostly Cloudy
5:50 AM 46.4 °F 45.2 °F 44.6 °F 93% 30.04 in 6.2 mi ESE 3.5 mph - N/A   Mostly Cloudy
6:20 AM 44.6 °F - 42.8 °F 93% 30.06 in 6.2 mi Calm Calm - N/A   Mostly Cloudy
6:50 AM 44.6 °F - 42.8 °F 93% 30.06 in 6.2 mi ENE 2.3 mph - N/A   Mostly Cloudy
7:20 AM 46.4 °F - 44.6 °F 93% 30.06 in 6.2 mi Calm Calm - N/A   Mostly Cloudy
7:50 AM 50.0 °F - 46.4 °F 87% 30.06 in 6.2 mi Variable 2.3 mph - N/A   Mostly Cloudy
8:20 AM 51.8 °F - 46.4 °F 82% 30.09 in 6.2 mi Calm Calm - N/A   Scattered Clouds
8:50 AM 51.8 °F - 44.6 °F 76% 30.09 in 6.2 mi Calm Calm - N/A   Scattered Clouds
9:20 AM 51.8 °F - 44.6 °F 76% 30.09 in 6.2 mi Variable 3.5 mph - N/A   Scattered Clouds
9:50 AM 53.6 °F - 46.4 °F 77% 30.09 in 6.2 mi SSW 5.8 mph - N/A   Mostly Cloudy
10:20 AM 55.4 °F - 44.6 °F 67% 30.09 in 6.2 mi SSW 8.1 mph - N/A   Mostly Cloudy
10:50 AM 55.4 °F - 42.8 °F 63% 30.09 in 6.2 mi South 10.4 mph - N/A   Scattered Clouds
11:20 AM 57.2 °F - 42.8 °F 59% 30.09 in 6.2 mi South 10.4 mph - N/A   Scattered Clouds
11:50 AM 55.4 °F - 42.8 °F 63% 30.09 in 6.2 mi South 10.4 mph - N/A   Scattered Clouds
12:20 PM 55.4 °F - 42.8 °F 63% 30.09 in 6.2 mi SSW 5.8 mph - N/A   Mostly Cloudy
12:50 PM 57.2 °F - 44.6 °F 63% 30.09 in 6.2 mi West 5.8 mph - N/A   Scattered Clouds
1:20 PM 57.2 °F - 46.4 °F 67% 30.09 in 6.2 mi WSW 8.1 mph - N/A   Mostly Cloudy
1:50 PM 57.2 °F - 44.6 °F 63% 30.09 in 6.2 mi West 4.6 mph - N/A   Mostly Cloudy
2:20 PM 59.0 °F - 44.6 °F 59% 30.09 in 6.2 mi WSW 9.2 mph - N/A   Scattered Clouds
2:50 PM 59.0 °F - 46.4 °F 63% 30.09 in 6.2 mi West 6.9 mph - N/A   Scattered Clouds
3:20 PM 59.0 °F - 44.6 °F 59% 30.09 in 6.2 mi WSW 9.2 mph - N/A   Scattered Clouds
3:50 PM 60.8 °F - 44.6 °F 55% 30.09 in 6.2 mi West 9.2 mph - N/A   Scattered Clouds
4:20 PM 59.0 °F - 44.6 °F 59% 30.09 in 6.2 mi WSW 8.1 mph - N/A   Scattered Clouds
4:50 PM 59.0 °F - 42.8 °F 55% 30.09 in 6.2 mi WSW 8.1 mph - N/A   Scattered Clouds
5:20 PM 59.0 °F - 42.8 °F 55% 30.09 in 6.2 mi WSW 8.1 mph - N/A   Partly Cloudy
5:50 PM 59.0 °F - 42.8 °F 55% 30.09 in 6.2 mi Variable 5.8 mph - N/A   Partly Cloudy
6:20 PM 59.0 °F - 42.8 °F 55% 30.09 in 6.2 mi West 5.8 mph - N/A   Partly Cloudy
6:50 PM 57.2 °F - 41.0 °F 55% 30.09 in 6.2 mi West 3.5 mph - N/A   Partly Cloudy
7:20 PM 57.2 °F - 42.8 °F 59% 30.09 in 6.2 mi NNW 4.6 mph - N/A   Partly Cloudy
7:50 PM 55.4 °F - 42.8 °F 63% 30.09 in 6.2 mi North 5.8 mph - N/A   Partly Cloudy
8:20 PM 51.8 °F - 42.8 °F 71% 30.09 in 6.2 mi North 3.5 mph - N/A   Partly Cloudy
8:50 PM 51.8 °F - 41.0 °F 67% 30.09 in 6.2 mi NNE 5.8 mph - N/A   Partly Cloudy
9:20 PM 48.2 °F - 41.0 °F 76% 30.09 in 6.2 mi NE 6.9 mph - N/A   Partly Cloudy
9:50 PM 50.0 °F - 44.6 °F 82% 30.09 in 6.2 mi ENE 8.1 mph - N/A   Partly Cloudy
10:20 PM 50.0 °F - 44.6 °F 82% 30.09 in 6.2 mi East 5.8 mph - N/A   Unknown
10:50 PM 50.0 °F - 44.6 °F 82% 30.09 in - East 9.2 mph - N/A   Clear
11:20 PM 48.2 °F - 44.6 °F 87% 30.09 in - ENE 8.1 mph - N/A   Clear
11:50 PM 48.2 °F - 42.8 °F 82% 30.09 in - East 9.2 mph - N/A   Clear